Regional Weather Roundup
Issued by NWS Midland/Odessa, TX

Skip options and go directly to product.
Home | Oldest Version | Previous Version | Current Version | All | Text Only | Save Text | Print | Product List | Glossary On

Skip product version selection by date and time.   
856
ASUS44 KMAF 240610
RWRMAF
MIDLAND AREA WEATHER ROUNDUP
NATIONAL WEATHER SERVICE MIDLAND TX
100 AM CDT WED AUG 24 2016

...IN SOUTHWEST TEXAS AND SOUTHEAST NEW MEXICO...

CITY           SKY/WX    TMP DP  RH WIND       PRES   REMARKS
ALPINE         CLEAR     70  65  82 S7        30.24S
ANDREWS        NOT AVBL
ARTESIA        CLOUDY    66  66 100 S7G13     30.14R
BIG SPRING     CLOUDY    78  65  65 S8        30.14S
CARLSBAD       CLOUDY    64  61  90 E10       30.16R
DRYDEN           N/A     80  65  59 SE10      30.07S
FORT STOCKTON  CLEAR     76  64  66 VRB3      30.11S
GUAD PASS      LGT RAIN  64  62  93 E17G30    30.28R
HOBBS          TSTM      64  64 100 NW17      30.21S
MARFA          MOCLDY   N/A N/A N/A S5        30.24R
MIDLAND AIRPK  CLOUDY    79  63  56 S6        30.14S
MIDLAND INTL   CLOUDY    75  68  78 W3        30.13S
ODESSA         CLOUDY    74  68  81 SE5       30.14S
PECOS          TSTM      69  62  80 W47G58    30.12R
PRESIDIO       NOT AVBL
SEMINOLE       CLOUDY    68  63  83 SW5       30.15F
SNYDER           N/A     79  63  58 S9        30.12S
WINK           LGT RAIN  71  66  84 SE10      30.12R
$$
...OTHER STATIONS IN TEXAS...

CITY           SKY/WX    TMP DP  RH WIND       PRES   REMARKS
ABILENE        CLOUDY    78  67  68 S16       30.11R
AMARILLO       CLOUDY    75  60  59 S21G29    30.08R
AUSTIN         CLEAR     75  71  87 S6        30.14R
BROWNSVILLE    PTCLDY    80  77  90 SE6       30.11R
CORPUS CHRISTI CLEAR     80  77  90 SE7       30.11S
DALLAS FTW     PTCLDY    82  72  71 S13       30.09R
DEL RIO        CLEAR     79  69  71 E12       30.06R
EL PASO        CLOUDY    68  62  81 SE6       30.13R
HOUSTON INT    PTCLDY    80  77  90 S5        30.14R
LUBBOCK        CLOUDY    72  65  78 SE13      30.12R
SAN ANGELO     CLEAR     78  65  63 S8        30.11R
SAN ANTONIO    CLEAR     78  72  81 SE12      30.15R
WACO           CLEAR     81  74  79 S16       30.11R
WICHITA FALLS  NOT AVBL
$$
...OTHER LOCATIONS IN NEW MEXICO...

CITY           SKY/WX    TMP DP  RH WIND       PRES   REMARKS
ALAMAGORDO     CLOUDY    73  59  60 S12       30.14S
ALBUQUERQUE    MOCLDY    67  50  54 N8        30.24R
CANNON AFB     CLOUDY    72  56  58 SW14      30.12S
CLOVIS         CLOUDY    72  54  53 S18       30.12F
HOLLOMAN AFB   CLOUDY    75  60  59 S16       30.11R
ROSWELL        MOCLDY    67  61  81 S12       30.12S
RUIDOSO          N/A     63  52  67 NW12      30.33R
SANTA FE       CLEAR     59  48  67 CALM      30.25S
TRUTH OR CONSE CLEAR     71  46  40 NW13      30.17R
TUCUMCARI      CLOUDY    75  59  57 SW14G22   30.07R
$$

USA.gov is the U.S. government's official web portal to all federal, state and local government web resources and services.